Terminal Aerodrome Forecast
Issued by NWS Milwaukee/Sullivan, WI

Home | Current Version | Previous Version | Text Only | Print | Product List | Glossary On
Versions: 1 2 3 4 5 6 7 8 9 10 11 12 13 14 15 16 17 18 19 20 21 22 23 24 25 26 27 28 29 30 31 32 33 34 35 36 37 38 39 40 41 42 43 44 45 46 47 48 49 50
000
FTUS43 KMKX 030302 AAB
TAFMKE
TAF AMD
KMKE 030302Z 0303/0406 17008KT P6SM BKN150 OVC250
     FM031100 16011KT 3SM -SN SCT025 OVC040
     FM031500 16016G24KT 2SM -FZRAPL OVC008
     FM031900 19015G21KT 3SM -RA OVC003
     FM032100 22014G21KT P6SM OVC008
     FM032300 26013G19KT P6SM OVC035=

USA.gov is the U.S. government's official web portal to all federal, state and local government web resources and services.